Location: *
(55.5817°S, 142.4781°W)
Time: 08:21:25
(UTC+00:00)

SL-19 R/B - Pass Details

Date: 29 April 2025
Orbit: 327 x 571 km, 99.4° (Epoch: 18 May)

Event Time Altitude Azimuth Distance (km) Brightness Sun altitude
Rises 14:34:21 0° 29° (NNE) 2,205 7.8 -19.5°
Reaches altitude 10° 14:36:13 10° 33° (NNE) 1,395 6.8 -19.2°
Maximum altitude 14:39:08 58° 112° (ESE) 474 4.2 -18.8°
Enters shadow 14:42:06 12° 191° (S) 1,431 6.3 -18.4°
